This demonstration page uses our WeatherBlox Daily Observations layout. Learn more.

Left ArrowRight Arrow

39.01783, -85.05884

Hourly Observations for September 30, 2018

Temp ( °F °C ) Dew Point ( °F °C ) Humidity (%) Winds ( mph kmh ) Pressure ( in mb ) Visibility ( mi km ) Precip ( " mm )
12:52 am 00:52 Clear 59 15 53 11.7 81 81 N N/A 30.22 1023 10 16 N/A
1:52 am 01:52 Clear 61 16.1 55 12.8 81 81 N N/A 30.19 1023 10 16 N/A
2:52 am 02:52 Mostly Clear 58 14.4 54 12.2 87 87 N 5 7 30.21 1023 10 16 N/A
3:52 am 03:52 Clear 57 13.9 55 12.8 93 93 N 3 6 30.22 1023 10 16 N/A
4:52 am 04:52 Clear 57 13.9 55 12.8 93 93 N N/A 30.23 1024 10 16 N/A
5:52 am 05:52 Clear 56 13.3 54 12.2 93 93 NNE 3 6 30.24 1024 9 14 N/A
6:52 am 06:52 Clear 56 13.3 54 12.2 93 93 ESE 3 6 30.24 1024 9 14 N/A
7:52 am 07:52 Mostly Sunny 56 13.3 54 12.2 93 93 ESE 5 7 30.24 1024 8 13 N/A
8:52 am 08:52 Mostly Sunny 60 15.6 57 13.9 90 90 E 5 7 30.25 1025 9 14 N/A
9:52 am 09:52 Mostly Sunny 64 17.8 58 14.4 81 81 ESE 6 9 30.25 1024 10 16 N/A
10:52 am 10:52 Mostly Sunny 68 20 58 14.4 70 70 SSE 5 7 30.25 1024 10 16 N/A
11:52 am 11:52 Mostly Sunny 72 22.2 59 15 64 64 VRB 3 6 30.25 1024 10 16 N/A
12:52 pm 12:52 Sunny 74 23.3 59 15 60 60 N N/A 30.24 1024 10 16 N/A
1:52 pm 13:52 Sunny 76 24.4 59 15 56 56 SSW 7 11 30.22 1023 10 16 N/A
2:52 pm 14:52 Mostly Sunny 78 25.6 57 13.9 48 48 VRB 3 6 30.19 1022 10 16 N/A
3:52 pm 15:52 Mostly Sunny 78 25.6 59 15 52 52 SSW 10 17 30.17 1022 10 16 N/A
4:52 pm 16:52 Mostly Sunny 78 25.6 58 14.4 50 50 S 9 15 30.16 1022 10 16 N/A
5:52 pm 17:52 Mostly Sunny 77 25 59 15 54 54 SSW 7 11 30.17 1022 10 16 N/A
6:52 pm 18:52 Mostly Sunny 75 23.9 60 15.6 60 60 SW 5 7 30.17 1022 10 16 N/A
7:52 pm 19:52 Clear 70 21.1 59 15 68 68 N N/A 30.17 1022 10 16 N/A
8:52 pm 20:52 Clear 63 17.2 59 15 87 87 S 5 7 30.18 1022 10 16 N/A
9:52 pm 21:52 Clear 66 18.9 59 15 78 78 N N/A 30.19 1022 10 16 N/A
10:52 pm 22:52 Clear 64 17.8 58 14.4 81 81 N N/A 30.21 1023 10 16 N/A
11:52 pm 23:52 Clear 61 16.1 59 15 93 93 N N/A 30.21 1023 10 16 N/A

Powered by AerisWeather